Temp
-6 -6 -6 -5 -5 -5 -5 -5 -5 -5 -5 -5 -4 -4 -4 -4 -4 -4 -4 -4 -4 -5 -4 -3 -3 -3 -3 -4 -4 -4 -4 -4 -4 -4 -4 -4 -4 -4 -5 -4 -4 -4 -4 -4 -5
-7 -6 -6 -6 -6 -5 -5 -5 -5 -5 -5 -5 -4 -4 -4 -4 -4 -4 -4 -4 -4 -5 -5 -2 -4 -4 -4 -4 -4 -4 -4 -4 -4 -4 -4 -4 -4 -4 -5 -5 -4 -4 -4 -4 -4
-7 -7 -7 -6 -6 -6 -6 -6 -5 -5 -5 -5 -5 -5 -4 -4 -4 -4 -4 -4 -4 -5 -5 -5 -3 -4 -4 -4 -4 -4 -4 -4 -4 -3 -4 -4 -4 -4 -4 -4 -5 -5 -4 -4 -4
-7 -7 -7 -7 -7 -7 -6 -6 -6 -5 -5 -5 -5 -5 -5 -4 -4 -4 -4 -4 -5 -5 -5 -6 -5 -5 -5 -4 -4 -4 -4 -5 -4 -4 -4 -4 -4 -4 -4 -4 -4 -4 -5 -4 -4
-7 -7 -7 -7 -7 -7 -7 -6 -6 -6 -6 -5 -5 -5 -5 -5 -4 -4 -5 -4 -5 -5 -5 -5 -5 -6 -6 -5 -5 -5 -4 -4 -4 -4 -4 -3 -3 -4 -4 -4 -4 -5 -5 -4 -4
-7 -7 -7 -7 -7 -7 -6 -6 -6 -6 -6 -6 -6 -5 -5 -5 -5 -5 -5 -5 -5 -5 -4 -5 -6 -5 -6 -5 -5 -5 -5 -4 -4 -4 -4 -3 -3 -3 -4 -4 -5 -5 -5 -5 -4
-7 -7 -7 -7 -7 -6 -6 -6 -6 -6 -6 -6 -6 -6 -6 -5 -5 -5 -5 -5 -5 -5 -5 -4 -6 -6 -6 -5 -5 -5 -5 -5 -5 -4 -4 -4 -4 -3 -3 -4 -5 -5 -4 -6 -4
-8 -7 -7 -7 -7 -7 -6 -6 -6 -6 -6 -6 -6 -6 -6 -5 -5 -5 -5 -5 -5 -5 -5 -5 -5 -5 -6 -6 -6 -6 -6 -5 -5 -5 -4 -4 -4 -3 -3 -4 -5 -5 -5 -5 -5
-8 -8 -8 -7 -7 -7 -7 -7 -6 -6 -6 -6 -6 -6 -6 -6 -5 -5 -5 -5 -5 -5 -5 -4 -5 -5 -5 -6 -6 -6 -8 -6 -6 -6 -5 -5 -5 -4 -3 -3 -4 -4 -5 -4 -5
-8 -8 -8 -8 -8 -7 -7 -7 -7 -7 -6 -6 -6 -7 -6 -6 -6 -6 -6 -6 -6 -5 -5 -5 -4 -4 -5 -5 -6 -7 -7 -6 -6 -6 -5 -5 -4 -4 -4 -3 -4 -4 -4 -5 -5
-9 -9 -9 -8 -8 -8 -8 -8 -7 -7 -7 -7 -6 -7 -6 -6 -6 -6 -6 -6 -6 -6 -5 -5 -5 -4 -5 -6 -8 -6 -7 -7 -6 -6 -6 -6 -5 -4 -4 -4 -4 -4 -4 -5 -4
-9 -9 -9 -8 -8 -8 -8 -8 -8 -8 -8 -7 -7 -7 -6 -6 -6 -7 -7 -6 -6 -5 -6 -6 -5 -5 -6 -7 -6 -7 -7 -8 -6 -6 -6 -6 -5 -5 -5 -4 -4 -4 -4 -5 -4
-9 -9 -9 -9 -9 -9 -9 -9 -9 -9 -9 -8 -8 -7 -7 -7 -7 -7 -7 -7 -6 -6 -6 -6 -6 -7 -6 -7 -6 -7 -7 -9 -7 -6 -6 -6 -6 -5 -5 -4 -4 -4 -4 -4 -4
-10 -9 -9 -9 -9 -9 -9 -9 -8 -8 -9 -8 -8 -8 -8 -7 -7 -7 -7 -7 -7 -6 -7 -7 -7 -7 -6 -7 -7 -9 -8 -8 -7 -7 -9 -7 -7 -6 -5 -4 -4 -4 -3 -4 -4
-10 -9 -9 -9 -10 -10 -10 -9 -10 -11 -11 -10 -9 -9 -8 -8 -7 -8 -8 -7 -7 -7 -7 -6 -7 -6 -6 -6 -7 -8 -10 -8 -8 -8 -8 -7 -6 -8 -5 -5 -4 -4 -4 -4 -4
-9 -9 -9 -9 -10 -10 -10 -11 -12 -13 -14 -13 -12 -11 -10 -9 -9 -8 -9 -8 -8 -8 -7 -7 -8 -7 -7 -7 -7 -8 -8 -8 -8 -8 -9 -8 -6 -8 -6 -6 -5 -4 -5 -5 -5
-10 -9 -9 -10 -10 -10 -11 -11 -13 -14 -15 -15 -15 -14 -13 -12 -11 -10 -10 -9 -9 -8 -7 -8 -7 -8 -8 -8 -8 -8 -10 -10 -10 -10 -9 -9 -7 -8 -6 -6 -6 -6 -6 -6 -6
-10 -10 -10 -10 -11 -11 -12 -13 -14 -15 -16 -16 -16 -15 -15 -15 -13 -12 -11 -10 -10 -10 -10 -8 -8 -8 -7 -7 -8 -7 -10 -10 -10 -9 -9 -9 -7 -7 -7 -6 -6 -6 -5 -6 -6
-10 -10 -10 -11 -11 -12 -13 -13 -15 -15 -16 -16 -16 -16 -17 -16 -15 -14 -13 -12 -12 -11 -10 -11 -9 -9 -9 -8 -8 -8 -8 -9 -10 -9 -9 -8 -7 -6 -7 -7 -7 -7 -6 -6 -6
-11 -11 -11 -12 -12 -12 -13 -14 -15 -16 -16 -16 -17 -17 -17 -16 -16 -16 -15 -14 -13 -12 -11 -12 -11 -10 -9 -9 -9 -9 -10 -9 -10 -10 -10 -9 -8 -8 -8 -8 -8 -7 -6 -6 -6
-12 -12 -12 -12 -13 -13 -14 -14 -15 -16 -16 -17 -17 -17 -17 -17 -17 -17 -16 -15 -14 -13 -13 -12 -11 -13 -11 -9 -9 -9 -8 -8 -11 -9 -10 -10 -9 -7 -8 -8 -7 -7 -7 -7 -6
-12 -13 -12 -13 -13 -14 -14 -14 -15 -16 -16 -17 -17 -17 -17 -18 -18 -17 -17 -16 -15 -14 -14 -13 -13 -13 -10 -10 -10 -10 -9 -9 -8 -8 -10 -10 -9 -9 -8 -8 -8 -8 -8 -7 -7
-13 -13 -13 -14 -14 -14 -15 -15 -15 -16 -16 -16 -17 -18 -17 -18 -18 -18 -17 -17 -16 -15 -14 -14 -13 -14 -14 -12 -10 -9 -9 -9 -9 -10 -11 -9 -8 -8 -8 -9 -8 -8 -8 -8 -7
-13 -13 -14 -14 -15 -15 -15 -15 -16 -16 -17 -17 -17 -17 -18 -18 -18 -18 -18 -17 -17 -16 -15 -15 -14 -14 -14 -12 -12 -11 -10 -9 -10 -10 -10 -10 -8 -10 -8 -9 -8 -8 -8 -8 -8
-13 -14 -14 -14 -15 -15 -15 -16 -16 -17 -17 -17 -18 -18 -18 -18 -18 -18 -18 -18 -17 -17 -16 -16 -15 -14 -14 -15 -14 -12 -11 -10 -9 -8 -10 -11 -8 -8 -8 -8 -9 -9 -9 -9 -8
-13 -14 -15 -15 -15 -15 -15 -16 -16 -17 -18 -18 -19 -19 -19 -18 -18 -18 -18 -18 -18 -17 -17 -16 -16 -15 -14 -14 -13 -13 -11 -11 -10 -10 -10 -12 -12 -11 -8 -7 -8 -10 -9 -9 -8
-13 -14 -15 -15 -15 -15 -16 -16 -16 -16 -17 -18 -18 -19 -19 -19 -18 -18 -18 -18 -17 -17 -17 -17 -16 -16 -16 -16 -14 -14 -13 -12 -11 -11 -11 -11 -11 -9 -7 -7 -8 -9 -9 -8 -8
Height
5866 5869 5871 5873 5874 5875 5877 5878 5879 5881 5883 5883 5884 5886 5888 5889 5890 5892 5893 5897 5899 5899 5900 5902 5903 5904 5905 5906 5908 5910 5911 5912 5914 5915 5916 5917 5917 5918 5917 5917 5916 5916 5914 5914 5911
5866 5867 5869 5870 5872 5873 5874 5876 5877 5878 5880 5881 5882 5883 5885 5887 5888 5890 5892 5895 5898 5898 5900 5901 5903 5904 5905 5906 5908 5910 5911 5911 5914 5916 5916 5917 5918 5919 5919 5918 5919 5919 5918 5916 5914
5865 5867 5867 5868 5870 5871 5872 5873 5874 5876 5877 5879 5880 5881 5882 5884 5887 5889 5890 5893 5896 5897 5900 5900 5902 5904 5905 5907 5909 5910 5912 5913 5914 5917 5918 5918 5919 5920 5919 5919 5920 5920 5921 5920 5918
5864 5864 5865 5867 5868 5869 5870 5871 5872 5873 5875 5876 5878 5879 5880 5882 5885 5886 5887 5890 5893 5895 5899 5901 5901 5903 5905 5908 5909 5912 5912 5915 5915 5916 5918 5919 5919 5921 5921 5921 5921 5920 5922 5922 5921
5861 5862 5863 5864 5866 5867 5868 5869 5870 5871 5872 5874 5875 5876 5878 5879 5882 5883 5885 5887 5890 5893 5896 5898 5901 5902 5905 5906 5908 5911 5913 5913 5914 5915 5918 5918 5919 5919 5920 5921 5921 5921 5923 5924 5924
5858 5859 5860 5862 5863 5864 5865 5866 5868 5868 5870 5871 5872 5873 5875 5876 5878 5880 5882 5884 5887 5890 5893 5895 5899 5900 5904 5905 5907 5910 5911 5912 5913 5915 5916 5917 5918 5917 5918 5919 5920 5921 5923 5925 5926
5855 5856 5857 5858 5859 5859 5861 5863 5864 5865 5866 5867 5868 5869 5870 5872 5874 5877 5879 5881 5883 5886 5888 5892 5896 5899 5901 5903 5906 5908 5910 5911 5912 5914 5915 5917 5918 5917 5917 5917 5919 5921 5923 5924 5927
5851 5851 5852 5853 5854 5855 5857 5858 5860 5861 5862 5863 5864 5866 5867 5867 5870 5873 5875 5877 5880 5882 5884 5888 5892 5895 5899 5902 5904 5907 5909 5910 5911 5912 5914 5916 5917 5916 5916 5917 5918 5920 5922 5923 5927
5848 5848 5848 5849 5849 5850 5851 5852 5854 5855 5856 5858 5859 5861 5862 5862 5865 5869 5871 5873 5875 5877 5879 5884 5887 5891 5896 5900 5904 5905 5910 5909 5911 5911 5912 5914 5914 5915 5916 5916 5917 5920 5921 5923 5925
5845 5844 5844 5844 5844 5845 5845 5845 5846 5847 5849 5850 5852 5856 5856 5858 5859 5863 5866 5869 5872 5873 5876 5879 5882 5887 5891 5896 5901 5903 5904 5906 5907 5909 5910 5911 5912 5913 5915 5916 5916 5918 5920 5923 5924
5841 5840 5840 5839 5839 5838 5839 5839 5840 5841 5840 5842 5845 5846 5848 5850 5852 5855 5859 5862 5865 5867 5870 5874 5878 5882 5890 5893 5896 5897 5899 5901 5904 5905 5907 5909 5910 5910 5912 5914 5915 5917 5919 5921 5922
5837 5836 5835 5834 5833 5831 5830 5830 5830 5831 5830 5832 5834 5836 5839 5842 5845 5847 5852 5855 5859 5862 5866 5868 5871 5880 5884 5886 5888 5892 5895 5898 5901 5902 5905 5907 5908 5908 5910 5912 5913 5915 5917 5917 5920
5832 5831 5829 5828 5827 5825 5823 5821 5819 5818 5819 5818 5821 5825 5828 5832 5835 5838 5843 5848 5852 5854 5858 5862 5873 5873 5875 5879 5882 5887 5891 5896 5896 5899 5902 5905 5907 5906 5908 5909 5912 5913 5915 5916 5919
5827 5824 5823 5822 5821 5817 5814 5810 5806 5803 5803 5803 5806 5811 5815 5820 5824 5827 5832 5838 5843 5848 5851 5854 5863 5863 5868 5873 5879 5883 5887 5888 5892 5897 5902 5902 5908 5904 5904 5907 5908 5910 5911 5914 5917
5821 5819 5818 5816 5813 5809 5805 5799 5794 5789 5789 5788 5790 5794 5800 5805 5812 5814 5820 5825 5832 5840 5841 5849 5853 5856 5860 5867 5872 5878 5885 5884 5887 5891 5895 5899 5901 5904 5902 5903 5903 5906 5908 5912 5915
5816 5815 5813 5810 5806 5801 5795 5788 5782 5780 5775 5775 5776 5779 5784 5789 5795 5802 5809 5814 5821 5826 5832 5840 5844 5847 5854 5861 5865 5871 5872 5877 5881 5887 5890 5895 5897 5902 5899 5899 5900 5902 5905 5907 5911
5811 5810 5807 5804 5799 5794 5787 5780 5775 5773 5769 5766 5766 5768 5771 5774 5780 5787 5793 5802 5809 5814 5821 5829 5830 5838 5843 5849 5854 5860 5865 5872 5877 5881 5886 5891 5892 5894 5894 5896 5897 5899 5901 5905 5907
5807 5805 5802 5798 5794 5788 5781 5774 5769 5764 5761 5760 5760 5761 5762 5764 5767 5774 5781 5789 5796 5802 5812 5816 5819 5828 5836 5841 5848 5852 5859 5867 5872 5879 5885 5885 5887 5892 5891 5893 5895 5897 5898 5901 5904
5802 5800 5796 5792 5788 5782 5776 5770 5765 5760 5757 5755 5755 5756 5756 5757 5761 5765 5771 5778 5784 5791 5799 5805 5812 5818 5824 5834 5840 5845 5847 5862 5868 5875 5877 5883 5886 5887 5889 5889 5891 5893 5896 5898 5903
5798 5794 5791 5787 5783 5777 5773 5768 5760 5756 5752 5751 5750 5751 5751 5752 5756 5759 5761 5765 5763 5775 5783 5792 5801 5805 5815 5822 5828 5835 5845 5849 5853 5861 5866 5874 5879 5885 5885 5887 5888 5891 5894 5896 5899
5792 5788 5785 5782 5777 5773 5768 5763 5757 5752 5749 5747 5746 5745 5745 5746 5749 5752 5752 5756 5761 5768 5776 5784 5792 5800 5800 5806 5818 5824 5829 5838 5848 5852 5860 5867 5874 5879 5881 5881 5884 5887 5891 5894 5897
5787 5784 5780 5776 5774 5768 5764 5758 5753 5749 5745 5742 5740 5740 5740 5741 5743 5745 5746 5749 5754 5761 5767 5774 5780 5786 5792 5801 5809 5816 5823 5832 5837 5844 5850 5861 5871 5871 5872 5877 5880 5882 5887 5890 5894
5783 5779 5775 5771 5767 5763 5759 5754 5749 5744 5741 5737 5735 5734 5733 5735 5737 5738 5740 5744 5748 5752 5757 5762 5770 5778 5784 5786 5796 5804 5813 5821 5829 5837 5840 5848 5862 5864 5868 5871 5875 5878 5883 5886 5888
5779 5775 5771 5767 5762 5758 5753 5749 5744 5739 5735 5731 5729 5727 5727 5726 5728 5732 5733 5737 5740 5745 5750 5755 5763 5767 5778 5785 5792 5794 5801 5810 5818 5823 5833 5836 5850 5858 5859 5864 5867 5871 5876 5881 5884
5774 5769 5765 5761 5757 5753 5748 5743 5738 5733 5729 5724 5722 5720 5718 5719 5719 5721 5725 5729 5733 5737 5742 5747 5752 5759 5766 5773 5779 5785 5793 5800 5804 5816 5821 5833 5840 5847 5853 5852 5858 5864 5869 5874 5879
5769 5764 5759 5755 5751 5747 5742 5738 5732 5725 5719 5715 5712 5710 5710 5710 5710 5712 5716 5720 5723 5730 5734 5739 5744 5749 5756 5762 5769 5775 5782 5790 5796 5804 5810 5818 5827 5834 5833 5843 5853 5856 5861 5866 5872
5764 5759 5754 5750 5746 5742 5737 5732 5726 5719 5714 5709 5706 5704 5701 5700 5700 5703 5706 5711 5716 5721 5726 5732 5738 5743 5750 5754 5761 5764 5771 5779 5787 5793 5800 5804 5813 5820 5827 5835 5842 5848 5854 5858 5863
Wind_Speed
14 15 15 17 17 17 17 17 18 19 18 18 18 17 15 14 13 11 8 9 19 17 14 13 12 8 4 10 14 15 14 14 11 11 8 7 6 7 8 8 10 10 11 12 18
10 12 13 14 14 14 15 16 18 19 18 17 18 18 17 16 15 12 12 11 19 20 13 16 12 8 6 2 16 21 13 17 13 10 10 7 5 6 6 6 8 9 9 11 17
6 9 9 10 11 12 12 13 14 15 15 16 16 17 17 16 16 13 14 12 16 22 20 15 14 5 5 8 18 18 13 13 8 7 2 2 4 6 6 5 6 9 6 9 14
6 7 8 8 8 9 10 12 14 15 15 15 15 16 17 17 17 15 16 15 15 19 22 19 11 8 9 13 10 16 11 13 10 7 6 5 4 1 4 4 4 7 7 7 12
9 10 10 10 10 11 12 13 13 14 14 15 15 17 19 19 17 16 17 16 16 17 24 27 14 13 10 12 10 7 14 12 1 3 5 4 4 6 6 7 5 6 7 5 11
12 13 14 14 15 15 16 16 16 16 16 15 15 16 17 19 21 19 18 18 18 18 22 32 22 17 15 12 12 11 8 8 5 3 1 1 3 5 7 14 10 8 7 6 10
16 16 17 17 17 19 20 20 20 20 20 19 18 18 19 21 21 21 21 19 19 21 23 29 33 27 19 15 12 11 8 9 8 7 5 5 3 2 5 14 10 10 8 8 11
12 15 17 19 21 22 23 22 23 24 24 23 23 22 22 25 23 21 21 21 22 23 24 25 33 37 31 23 18 15 12 10 9 8 7 6 1 2 2 9 13 11 10 10 11
11 13 14 15 17 19 22 25 27 27 27 27 27 27 27 28 27 24 23 23 24 26 26 27 28 30 33 33 28 24 18 19 16 11 10 9 5 4 5 6 16 16 14 12 11
10 13 15 17 19 20 22 24 26 28 31 32 31 31 33 32 30 28 26 25 25 27 28 29 29 27 27 25 23 25 29 27 25 20 19 17 15 15 12 10 13 17 18 15 14
14 16 18 20 22 24 26 28 29 30 32 33 35 36 36 36 35 33 31 30 29 30 29 28 29 29 20 21 23 21 21 24 26 23 20 13 10 10 13 14 13 14 19 19 18
15 17 19 21 22 25 28 30 33 34 37 37 37 38 40 39 39 38 34 35 33 32 30 33 32 21 22 25 27 22 20 22 22 22 20 15 12 9 15 13 15 16 21 22 22
15 17 18 21 25 29 32 35 36 38 38 43 42 40 42 43 42 42 40 37 36 36 35 33 22 26 27 29 28 28 24 20 24 23 21 17 14 15 14 16 17 18 20 25 23
15 18 21 23 24 27 32 38 43 45 42 45 45 45 46 46 46 46 45 43 41 39 39 36 29 34 33 29 29 29 28 29 24 21 14 21 11 19 17 17 19 20 17 23 22
15 18 18 26 29 31 37 42 44 40 36 42 42 45 47 50 49 50 48 48 46 42 44 41 38 38 36 33 30 29 24 29 29 27 24 22 19 16 15 15 17 20 21 22 22
13 19 26 26 29 32 37 40 42 30 30 31 33 38 43 50 53 52 50 50 48 47 47 41 39 41 37 32 32 29 33 31 29 26 25 22 23 14 17 16 16 18 23 27 27
14 21 23 26 30 34 37 41 34 23 24 27 27 29 34 43 50 52 53 52 52 51 50 46 50 46 44 42 39 36 32 29 28 27 24 24 28 20 21 18 18 17 21 25 28
15 15 23 26 31 34 38 38 32 24 21 21 23 21 23 31 39 46 49 51 52 53 50 52 55 50 46 46 41 40 37 31 31 23 24 28 27 20 23 21 19 18 18 21 26
18 17 21 26 30 34 37 34 30 22 20 19 17 18 21 22 26 34 43 45 51 52 54 48 55 50 50 47 45 43 44 34 29 26 28 26 23 25 21 22 20 23 20 18 19
20 21 21 25 28 32 33 32 27 20 20 18 17 17 19 21 22 24 29 44 55 58 57 51 49 55 50 50 50 47 41 42 40 38 33 28 29 22 24 24 22 23 19 19 19
21 23 23 24 25 29 28 29 26 21 17 17 17 19 20 21 20 24 28 35 45 48 53 54 54 40 55 56 52 53 52 47 38 41 32 29 28 32 24 27 27 28 23 17 16
21 23 24 24 25 27 27 27 25 22 16 15 16 17 22 23 22 22 28 29 34 43 48 51 52 43 54 54 50 52 53 48 48 43 42 29 24 34 37 30 30 30 26 21 20
21 22 24 24 25 26 26 25 25 22 21 18 17 17 19 25 27 24 25 29 29 35 43 50 54 40 38 51 57 55 53 52 49 44 38 41 33 35 38 35 34 33 26 24 23
20 21 23 23 24 25 26 25 24 22 21 20 19 19 20 23 30 31 28 29 30 31 35 42 45 43 36 43 44 55 56 54 53 49 43 42 40 34 42 41 41 39 32 26 23
21 23 23 25 24 25 26 26 25 24 24 26 25 22 22 24 27 37 34 32 32 32 31 32 38 43 47 31 33 45 52 54 57 54 48 36 40 42 42 50 40 40 32 30 28
22 24 24 24 23 24 26 25 26 30 26 24 24 23 23 26 28 31 41 37 36 35 33 31 30 33 40 46 42 43 48 51 53 54 55 42 36 35 52 51 44 36 38 34 34
24 26 25 22 23 23 24 25 26 26 18 14 12 16 17 21 26 31 34 46 40 38 37 33 28 26 25 30 39 41 44 51 50 52 53 54 51 52 49 47 52 49 40 37 40
Wind_Direction
207 213 220 227 234 241 242 242 246 246 249 253 254 253 243 236 233 231 221 182 166 176 184 163 172 185 160 163 162 171 150 165 168 164 154 128 104 92 91 74 59 73 86 88 92
206 214 220 219 227 234 240 236 241 245 246 245 247 248 242 233 230 224 221 197 180 183 174 179 152 170 193 229 178 169 163 171 175 173 153 147 125 121 106 100 71 71 79 98 104
209 217 220 223 229 233 236 238 236 239 239 238 238 237 240 238 232 219 220 208 191 199 200 210 214 185 174 173 180 188 185 167 182 181 120 102 188 149 134 123 99 76 71 102 113
232 237 237 240 239 241 246 243 236 236 237 235 234 236 236 237 238 222 220 209 202 202 193 178 202 176 174 159 189 180 220 199 218 181 189 17 258 231 157 148 133 105 88 122 124
261 255 253 250 248 248 247 249 249 245 237 236 235 237 238 238 237 231 225 214 207 203 194 195 194 180 177 194 200 201 198 222 231 231 230 306 280 225 242 199 188 141 117 148 145
274 273 266 263 260 256 254 252 251 250 247 241 237 235 237 238 234 232 225 220 210 206 199 198 193 196 192 196 207 196 197 212 206 178 274 9 268 250 206 209 195 172 139 148 167
270 269 270 271 269 265 261 257 255 252 251 249 244 239 235 239 236 233 230 224 215 211 212 203 205 207 208 209 213 216 210 235 251 259 256 227 242 277 166 215 192 181 170 159 178
271 270 268 269 270 268 267 265 260 256 254 250 248 246 241 238 237 233 233 226 221 214 217 217 211 216 217 215 221 227 237 238 248 240 226 181 185 332 307 202 196 185 205 177 177
279 279 279 277 274 272 269 266 263 260 257 254 250 247 243 244 240 235 235 231 228 222 222 222 224 220 219 222 227 235 244 240 234 218 211 211 220 274 282 241 206 196 203 181 184
286 288 288 287 284 279 273 270 265 262 258 255 251 248 244 245 245 241 235 232 230 230 226 226 228 227 225 220 228 238 236 240 236 235 240 244 255 253 245 222 213 204 204 196 190
293 293 293 292 289 285 282 278 271 266 261 256 252 249 245 244 243 242 238 234 229 231 230 231 233 232 228 223 205 227 223 224 231 234 241 244 247 243 225 234 222 215 205 199 204
299 304 305 301 294 290 287 281 275 270 265 258 253 248 245 244 243 242 240 239 236 237 235 232 232 234 224 219 227 224 209 222 229 228 228 224 223 239 231 233 219 213 212 207 213
317 321 320 322 319 310 303 292 283 275 267 261 255 250 246 241 240 242 240 238 236 235 236 239 234 232 227 220 222 218 210 224 224 222 226 216 224 230 235 240 240 241 236 220 215
329 337 334 330 328 330 330 313 297 287 279 263 255 249 243 241 237 236 236 236 233 233 235 235 225 226 225 222 220 223 221 229 221 215 212 199 206 224 226 234 247 242 235 215 211
340 336 332 325 323 327 327 333 320 299 288 268 256 246 240 235 236 234 231 233 233 232 233 234 230 229 228 223 219 219 225 223 221 210 216 208 220 243 229 249 250 237 215 215 214
331 322 327 325 327 328 333 328 325 306 285 277 261 246 237 232 230 229 229 229 230 227 229 229 229 231 230 225 224 216 223 222 228 222 227 212 209 218 234 247 255 249 227 220 213
318 327 324 329 331 329 333 331 324 305 291 278 269 252 242 232 227 224 224 223 225 226 226 225 230 226 224 222 220 217 218 220 225 226 229 229 202 197 222 234 241 241 230 222 218
317 325 321 324 328 332 338 336 328 307 285 280 268 263 253 239 232 223 220 218 217 222 223 223 228 226 227 224 228 225 217 217 222 223 228 240 208 217 223 230 238 243 248 235 223
313 315 313 323 330 336 342 338 331 311 293 287 266 260 261 251 235 229 220 218 217 220 219 220 224 228 225 223 222 225 226 219 225 227 226 233 211 213 220 229 230 235 241 234 220
317 317 314 323 332 337 342 338 332 315 302 289 262 252 250 248 234 226 225 216 216 213 215 213 216 223 223 220 221 219 227 221 221 220 230 219 213 205 218 227 230 240 237 226 225
317 319 318 320 329 334 339 335 329 324 301 287 273 252 240 244 238 225 228 226 221 218 217 215 217 215 223 221 220 220 225 222 225 224 226 230 224 212 214 225 228 233 239 240 231
320 319 320 318 324 329 335 333 327 322 310 287 278 264 246 232 236 228 231 234 226 221 218 217 217 212 225 221 219 222 225 225 228 229 228 219 222 218 216 224 224 231 232 232 229
322 319 320 319 320 326 332 332 326 319 317 308 283 262 253 237 223 228 228 230 229 225 223 221 220 219 218 221 219 221 222 221 224 224 230 226 211 222 211 218 222 225 220 216 223
324 320 318 321 318 324 332 334 327 318 312 302 295 283 255 241 230 221 223 224 230 230 227 224 222 223 225 228 223 221 220 221 221 224 225 233 222 217 213 215 216 217 219 210 223
333 323 316 322 321 325 332 334 329 321 308 299 294 280 270 254 235 224 222 218 223 228 232 231 229 228 220 212 212 226 222 223 223 225 227 227 227 219 220 218 222 222 205 217 221
338 328 318 318 322 324 333 336 336 332 320 307 296 291 275 263 248 234 220 220 215 221 223 230 229 230 225 224 224 218 220 222 225 225 226 220 219 223 220 218 215 227 207 206 216
337 334 320 313 323 324 336 339 344 340 347 360 348 328 309 278 260 245 228 223 216 212 213 215 221 225 225 228 225 222 221 220 220 224 228 227 226 224 219 215 212 220 224 200 204